Curacao, Netherlands

6:58 AM AST on March 26, 2017 (GMT -0400)
Willemstad-Hato International

Weather History for TNCC - February, 2012

Change the Weather History Date:

Tuesday, February 28, 2012

  Actual Average Record
Temperature  
Mean Temperature 80 °F -  
Max Temperature 86 °F 85 °F 88 °F (2015)
Min Temperature 75 °F 77 °F 71 °F (2002)
Cooling Degree Days 16    
Growing Degree Days 30 (Base 50)    
Moisture  
Dew Point 69 °F    
Average Humidity 69    
Maximum Humidity 83    
Minimum Humidity 48    
Precipitation  
Precipitation 0.00 in - - ()
Sea Level Pressure  
Sea Level Pressure 29.96 in    
Wind  
Wind Speed 14 mph ()    
Max Wind Speed 20 mph    
Max Gust Speed -    
Visibility 8.5 miles    
Events      
Averages and records for this station are not official NWS values.
T = Trace of Precipitation, MM = Missing Value Source: Averaged Metar Reports

Daily Weather History Graph

Daily Weather History Graph

Search for Another Location

Airport or City:

Trip Planner

Search our weather history database for the weather conditions in past years. The results will help you decide how hot, cold, wet, or windy it might be!

Date:

Astronomy

Feb. 28, 2012 Rise Set
Actual Time 6:52 AM AST 6:44 PM AST
Civil Twilight 6:30 AM AST 7:06 PM AST
Nautical Twilight 6:06 AM AST 7:31 PM AST
Astronomical Twilight 5:41 AM AST 7:55 PM AST
Moon 11:11 AM AST (2/28) No Moon Set
Length of Visible Light 12h 35m
Length of Day
11h 52m
Waxing Crescent, 37% of the Moon is Illuminated
Feb 28
Waxing Crescent
Feb 29
First Quarter
Mar 8
Full
Mar 14
Last Quarter
Mar 22
New

Hourly Weather History & Observations

Time (AST) Temp. Heat Index Dew Point Humidity Pressure Visibility Wind Dir Wind Speed Gust Speed Precip Events Conditions
12:00 AM 78.8 °F - 69.8 °F 74% 29.98 in 6.2 mi East 19.6 mph - N/A   Scattered Clouds
1:00 AM 78.8 °F - 69.8 °F 74% 29.95 in 6.2 mi East 16.1 mph - N/A   Scattered Clouds
2:00 AM 78 °F - 69 °F 66% 29.96 in 16 mi ESE 17.3 mph - -   Partly Cloudy
2:00 AM 78.8 °F - 68.0 °F 69% 29.95 in 6.2 mi East 16.1 mph - N/A   Scattered Clouds
3:00 AM 78.8 °F - 69.8 °F 74% 29.95 in 6.2 mi East 16.1 mph - N/A   Scattered Clouds
4:00 AM 77.0 °F - 68.0 °F 74% 29.95 in 6.2 mi East 17.3 mph - N/A   Scattered Clouds
5:00 AM 77 °F - 68 °F 66% 29.95 in 16 mi ESE 18.4 mph - -   Partly Cloudy
5:00 AM 77.0 °F - 68.0 °F 74% 29.95 in 6.2 mi ESE 18.4 mph - N/A   Scattered Clouds
6:00 AM 75.2 °F - 68.0 °F 78% 29.95 in 6.2 mi SE 15.0 mph - N/A   Scattered Clouds
7:00 AM 77.0 °F - 66.2 °F 69% 29.98 in 6.2 mi ESE 15.0 mph - N/A   Partly Cloudy
8:00 AM - - - N/A% 29.98 in 6.2 mi East 11.5 mph - N/A   Partly Cloudy
10:00 AM 82.4 °F 86.3 °F 69.8 °F 66% 30.01 in 6.2 mi East 13.8 mph - N/A   Partly Cloudy
11:00 AM 84.2 °F 89.6 °F 71.6 °F 66% 30.01 in 6.2 mi East 11.5 mph - N/A   Scattered Clouds
12:00 PM 84.2 °F 87.3 °F 68.0 °F 58% 30.01 in 6.2 mi East 13.8 mph - N/A   Scattered Clouds
1:00 PM 84.2 °F 87.3 °F 68.0 °F 58% 29.98 in 6.2 mi East 15.0 mph - N/A   Scattered Clouds
2:00 PM 85 °F - 68 °F 48% 29.95 in 16 mi East 12.7 mph - -   Scattered Clouds
2:00 PM 86.0 °F 89.4 °F 68.0 °F 55% 29.95 in 6.2 mi East 12.7 mph - N/A   Partly Cloudy
3:00 PM 84.2 °F 88.4 °F 69.8 °F 62% 29.92 in 6.2 mi ENE 15.0 mph - N/A   Partly Cloudy
4:00 PM 82.4 °F 86.3 °F 69.8 °F 66% 29.92 in 6.2 mi East 15.0 mph - N/A   Partly Cloudy
5:00 PM 82 °F - 70 °F 59% 29.93 in 19 mi East 16.1 mph - -   Scattered Clouds
5:00 PM 82.4 °F 86.3 °F 69.8 °F 66% 29.92 in 6.2 mi East 16.1 mph - N/A   Partly Cloudy
6:00 PM 80.6 °F 83.9 °F 69.8 °F 70% 29.92 in 6.2 mi East 16.1 mph - N/A   Scattered Clouds
7:00 PM 78.8 °F - 71.6 °F 78% 29.95 in 6.2 mi East 15.0 mph - N/A   Scattered Clouds
8:00 PM 78 °F - 70 °F 69% 29.96 in 19 mi East 16.1 mph - -   Scattered Clouds
8:00 PM 78.8 °F - 69.8 °F 74% 29.95 in 6.2 mi East 16.1 mph - N/A   Partly Cloudy
9:00 PM 77.0 °F - 71.6 °F 83% 29.95 in 6.2 mi East 17.3 mph - N/A   Scattered Clouds
10:00 PM 77.0 °F - 71.6 °F 83% 29.98 in 6.2 mi East 15.0 mph - N/A   Scattered Clouds
11:00 PM 78 °F - 70 °F 70% 30.01 in 19 mi East 15.0 mph - -   Partly Cloudy
11:00 PM 78.8 °F - 69.8 °F 74% - 6.2 mi East 15.0 mph - N/A   Scattered Clouds